Findlay, OH

5:29 PM EST on December 07, 2019 (GMT -0500)
Findlay

Weather History for KFDY - July, 2019

Change the Weather History Date:

Monday, July 15, 2019

  Actual Average Record
Temperature  
Mean Temperature 81 °F -  
Max Temperature 93 °F 82 °F 100 °F (1988)
Min Temperature 69 °F 63 °F 37 °F (1996)
Cooling Degree Days 16    
Growing Degree Days 31 (Base 50)    
Moisture  
Dew Point 68 °F    
Average Humidity 68    
Maximum Humidity 87    
Minimum Humidity 44    
Precipitation  
Precipitation 0.05 in - - ()
Sea Level Pressure  
Sea Level Pressure 30.05 in    
Wind  
Wind Speed 5 mph (SW)    
Max Wind Speed 22 mph    
Max Gust Speed 32 mph    
Visibility 10 miles    
Events Rain , Thunderstorm    
Averages and records for this station are not official NWS values.
T = Trace of Precipitation, MM = Missing Value Source: NWS Daily Summary

Daily Weather History Graph

Daily Weather History Graph

Search for Another Location

Airport or City:

Astronomy

Jul. 15, 2019 Rise Set
Actual Time 6:15 AM EDT 9:05 PM EDT
Civil Twilight 5:42 AM EDT 9:38 PM EDT
Nautical Twilight 5:01 AM EDT 10:19 PM EDT
Astronomical Twilight 4:14 AM EDT 11:06 PM EDT
Moon 8:22 PM EDT (7/15) 5:01 AM EDT (7/15)
Length of Visible Light 15h 55m
Length of Day
14h 50m
Waxing Gibbous, 98% of the Moon is Illuminated
Jul 15
Waxing Gibbous
Jul 16
Full
Jul 24
Last Quarter
Jul 31
New
Aug 7
First Quarter

Hourly Weather History & Observations

Time (EDT) Temp. Heat Index Dew Point Humidity Pressure Visibility Wind Dir Wind Speed Gust Speed Precip Events Conditions
12:53 AM 73.9 °F - 64.0 °F 71% 30.08 in 10.0 mi Calm Calm - N/A   Clear
1:53 AM 72.0 °F - 63.0 °F 73% 30.08 in 10.0 mi SSE 3.5 mph - N/A   Clear
2:53 AM 71.1 °F - 64.9 °F 81% 30.06 in 10.0 mi South 3.5 mph - N/A   Clear
3:53 AM 72.0 °F - 64.9 °F 78% 30.06 in 10.0 mi Calm Calm - N/A   Clear
4:53 AM 70.0 °F - 64.9 °F 84% 30.05 in 10.0 mi ESE 3.5 mph - N/A   Clear
5:53 AM 69.1 °F - 64.9 °F 87% 30.07 in 10.0 mi Calm Calm - N/A   Clear
6:53 AM 70.0 °F - 66.0 °F 87% 30.08 in 10.0 mi ESE 3.5 mph - N/A   Clear
7:53 AM 73.9 °F - 68.0 °F 82% 30.09 in 10.0 mi Calm Calm - N/A   Clear
8:53 AM 78.1 °F - 70.0 °F 76% 30.10 in 10.0 mi SSW 4.6 mph - N/A   Clear
9:53 AM 82.0 °F 85.5 °F 69.1 °F 65% 30.09 in 10.0 mi SSW 5.8 mph - N/A   Clear
10:53 AM 84.9 °F 89.4 °F 70.0 °F 61% 30.08 in 10.0 mi SSW 6.9 mph - N/A   Clear
11:53 AM 86.0 °F 90.7 °F 70.0 °F 59% 30.08 in 10.0 mi West 9.2 mph - N/A   Clear
12:53 PM 89.1 °F 94.1 °F 70.0 °F 53% 30.07 in 10.0 mi Variable 5.8 mph - N/A   Clear
1:53 PM 90.0 °F 95.4 °F 70.0 °F 52% 30.05 in 10.0 mi SW 9.2 mph - N/A   Clear
2:53 PM 91.9 °F 95.9 °F 68.0 °F 45% 30.03 in 10.0 mi WNW 6.9 mph - N/A   Scattered Clouds
3:53 PM 91.0 °F 95.2 °F 68.0 °F 47% 30.01 in 10.0 mi Variable 5.8 mph - N/A   Partly Cloudy
4:53 PM 93.0 °F 97.4 °F 68.0 °F 44% 29.99 in 10.0 mi Variable 4.6 mph - N/A   Clear
5:53 PM 89.1 °F 95.0 °F 71.1 °F 55% 29.99 in 10.0 mi WNW 12.7 mph - 0.00 in   Partly Cloudy
6:53 PM 88.0 °F 93.8 °F 71.1 °F 57% 29.99 in 10.0 mi West 18.4 mph 23.0 mph N/A   Clear
7:53 PM 82.0 °F 85.5 °F 69.1 °F 65% 30.01 in 10.0 mi SW 17.3 mph 27.6 mph N/A   Partly Cloudy
8:01 PM 81.0 °F 84.1 °F 69.1 °F 67% 30.03 in 10.0 mi SSW 19.6 mph 32.2 mph N/A Thunderstorm Clear
8:30 PM 81.0 °F 83.8 °F 68.0 °F 65% 30.03 in 10.0 mi West 21.9 mph 29.9 mph 0.00 in   Scattered Clouds
8:53 PM 78.1 °F - 69.1 °F 74% 30.00 in 3.0 mi SW 3.5 mph - 0.05 in Rain Light Rain
9:53 PM 78.1 °F - 70.0 °F 76% 30.01 in 10.0 mi SSW 12.7 mph - 0.00 in   Partly Cloudy
10:53 PM 75.9 °F - 70.0 °F 82% 30.01 in 10.0 mi SSW 8.1 mph - N/A   Clear
11:53 PM 75.9 °F - 71.1 °F 85% 30.03 in 10.0 mi South 5.8 mph - N/A   Clear